{"data":{"norad_id":66043,"intl_designator":"2025-233L","name":"QIANFAN-101","alt_names":[],"object_type":"PAYLOAD","status":"ACTIVE","operator":null,"country":"PRC","launch_date":"2025-10-17","launch_site_code":"TAISC","launch_vehicle":null,"mission":null,"orbit_class":"UNKNOWN","rcs_meters":null,"size_class":null,"mass_kg":null,"dimensions":null,"purposes":[],"wikipedia_slug":null,"has_3d_model":false,"image_url":null,"decayed_at":null,"tle_current":{"epoch":"2026-05-25T03:36:57.972672Z","epoch_age_seconds":58701,"freshness":"FRESH","line1":"1 66043U 25233L   26145.15067098  .00000241  00000+0  93365-4 0  9994","line2":"2 66043  89.0020  43.2105 0013501 212.4666 147.5698 14.26793161 31343","mean_motion":14.26793161,"eccentricity":0.0013501,"inclination_deg":89.002,"raan_deg":43.2105,"arg_perigee_deg":212.4666,"mean_anomaly_deg":147.5698,"bstar":9.3365e-5,"rev_number":3134,"period_min":100.92563094364,"perigee_km":792.77552665788,"apogee_km":812.16460185278,"semimajor_km":7180.6070642553,"source":"CELESTRAK","updated_at":"2026-05-25T13:38:05.921882Z"}}}